Location: Windsor
(43.2292°N, 89.3015°W)
Time: 22:11:16
(UTC+00:00)

MOZHAYETS 4 - Pass Details

Date: 01 July 2022
Orbit: 660 x 678 km, 98.2° (Epoch: 16 August)

Event Time Altitude Azimuth Distance (km) Brightness Sun altitude
Exits shadow 07:32:47 10° 132° (SE) 2,125 10.1 -20.4°
Reaches altitude 10° 07:32:49 10° 131° (SE) 2,109 10.1 -20.4°
Maximum altitude 07:36:56 33° 68° (ENE) 1,135 9.3 -20.1°
Drops below altitude 10° 07:41:03 10° 5° (N) 2,113 11.3 -19.8°
Sets 07:43:27 0° 356° (N) 3,029 12.2 -19.6°
